TIME,DELAY(SENSOR),PRES,OXYGEN,RAWTEMP,T(OPTODE),TCPHASE,FLUOR,BETA(BETA700),BETA(BETA412),BETA(BETA440),CDOM,C(CSC),ED(ED412.40),ED(ED444.00),ED(ED489.70),ED(ED554.30),LU(LU411.80),LU(LU443.40),LU(LU489.60),LU(LU554.10),COMP,TILTX,TILTY,CHECK
1371787419,5809,768.2899780273438000,42.4340515136718750,654.6384887695312000,4.8043231964111330,54.5760307312011700,52,100,85,79,80,14815,2147750235,2147424950,2148009362,2147872173,2147638006,2147055753,2148254546,2147197485,1290,4,13,39695
1371791016,5806,801.6300048828125000,43.5131187438964840,656.6337280273438000,4.7387328147888180,54.4318809509277340,53,101,87,78,79,14816,2147750729,2147425051,2148012269,2147873161,2147638875,2147061211,2148255277,2147195200,3546,4,13,64119
1371794616,5808,796.8200073242188000,43.8892097473144500,657.9470825195312000,4.6955342292785645,54.3922004699707000,52,101,86,79,79,14816,2147750884,2147423186,2148010194,2147872164,2147641088,2147052681,2148258889,2147200201,3112,4,13,6034
1371798216,5810,821.6400146484375000,48.4046516418457000,661.4633789062500000,4.5797839164733890,53.7856407165527340,52,99,88,78,79,14819,2147754038,2147425142,2148011547,2147873389,2147636644,2147055122,2148257417,2147196480,3458,4,13,34547
1371801816,5806,824.3300170898438000,48.5503692626953100,662.1008300781250000,4.5587859153747560,53.7739791870117200,52,98,85,78,79,14818,2147754523,2147425197,2148012836,2147873426,2147638811,2147058669,2148257673,2147197440,158,4,13,15105
1371805416,5809,825.3699951171875000,49.1470718383789060,662.9398803710938000,4.5311388969421390,53.7006797790527340,52,98,84,79,80,14810,2147752210,2147426688,2148011392,2147873106,2147639378,2147049673,2148257792,2147198464,146,4,13,57501
1371809016,5811,851.2700195312500000,51.8077583312988300,665.3452148437500000,4.4518389701843260,53.3612709045410160,53,97,86,79,80,14808,2147752886,2147423698,2148010925,2147875611,2147640914,2147055597,2148256137,2147196800,3441,4,13,30293
1371812616,5810,856.7299804687500000,52.1349487304687500,664.9398803710938000,4.4652080535888670,53.3137283325195300,52,98,86,78,79,14813,2147755931,2147424905,2148011529,2147877988,2147641408,2147053970,2148259300,2147197403,3095,4,13,18057
1371816216,5808,861.5200195312500000,51.2672386169433600,664.3090209960938000,4.4860119819641110,53.4230308532714840,52,97,88,78,79,14811,2147753600,2147423835,2148012480,2147874203,2147640219,2147056228,2148257645,2147198089,15,4,13,21408
1371819816,5809,883.9400024414062000,52.2341194152832000,665.9680786132812000,4.4312949180603030,53.3122787475585940,51,98,85,77,79,14811,2147753307,2147424502,2148012635,2147876836,2147642733,2147056914,2148254619,2147197805,175,4,13,45775
1371823416,5811,890.9400024414062000,51.9128608703613300,665.2687988281250000,4.4543609619140625,53.3504905700683600,52,97,86,78,79,14809,2147754377,2147424246,2148009746,2147875684,2147638747,2147052553,2148261504,2147198144,45,4,13,64209
1371827016,5806,885.7800292968750000,52.0674095153808600,665.2860717773438000,4.4537892341613770,53.3277397155761700,52,97,84,78,80,14809,2147755154,2147423707,2148011218,2147876534,2147641371,2147053440,2148256923,2147200658,242,4,13,27611
1371830616,5808,908.7100219726562000,52.8732795715332000,667.8989257812500000,4.3675789833068850,53.2507896423339840,52,98,83,78,79,9291,2147758747,2147425014,2148008749,2147874285,2147639140,2147053266,2148254592,2147196059,813,4,13,32095
1371834216,5810,908.0399780273438000,53.2223205566406250,669.5042114257812000,4.3145751953125000,53.2261390686035160,52,99,83,79,79,9919,2147753170,2147426166,2148010678,2147874925,2147644553,2147054546,2148259419,2147198729,63,4,13,53791
1371837816,5809,911.4500122070312000,53.2329597473144500,669.5778198242188000,4.3121452331542970,53.2243003845214840,52,97,85,79,79,11308,2147752859,2147424530,2148009828,2147875062,2147642212,2147054326,2148260425,2147199990,419,4,13,17565
1371841416,5808,935.5100097656250000,53.8793983459472660,672.0156860351562000,4.2315859794616700,53.1690406799316400,52,96,86,79,80,11573,2147755629,2147426313,2148008886,2147872786,2147641353,2147052224,2148263725,2147198912,30,4,13,58978
1371845016,5810,928.4899902343750000,54.1396789550781250,673.9102783203125000,4.1689381599426270,53.1604309082031250,52,96,85,78,80,11403,2147755456,2147426605,2148009307,2147876918,2147645613,2147058788,2148260489,2147195501,106,4,13,10876
1371848616,5810,936.6199951171875000,54.2996482849121100,673.0817260742188000,4.1963438987731930,53.1291694641113300,52,96,86,78,80,10972,2147756160,2147426249,2148013211,2147873572,2147642349,2147054802,2148262564,2147196525,3546,4,13,15107
1371852216,5809,975.0399780273438000,54.9459304809570300,674.8112182617188000,4.1391329765319820,53.0673408508300800,52,97,88,78,79,8921,2147754843,2147427081,2148012608,2147873097,2147643136,2147054610,2148261824,2147198829,3495,4,13,46054
1371855816,5806,966.4000244140625000,54.5146789550781250,674.7957763671875000,4.1396450996398930,53.1225318908691400,53,98,85,78,80,5934,2147756726,2147425645,2148014153,2147874715,2147643492,2147056484,2148258596,2147200310,458,4,13,65048
1371859416,5805,968.8900146484375000,54.7362289428710940,674.9970092773438000,4.1329860687255860,53.0908699035644500,52,100,88,78,79,4536,2147755556,2147426861,2148013787,2147873810,2147642651,2147050742,2148259794,2147195858,170,4,13,17259
1371863016,5811,972.8900146484375000,54.8086814880371100,675.3637084960938000,4.1208500862121580,53.0875892639160160,52,96,83,78,78,7778,2147755638,2147425261,2148012992,2147874075,2147641636,2147047936,2148262765,2147198409,29,4,13,39722
1371866616,5810,972.4099731445312000,54.3333396911621100,675.8901977539062000,4.1034240722656250,53.1564903259277340,53,97,86,78,80,9803,2147755117,2147426797,2148011913,2147875328,2147644032,2147052553,2148260251,2147196233,153,4,13,17532
1371870216,5809,968.7100219726562000,54.2985916137695300,677.1414794921875000,4.0619959831237790,53.1817588806152340,52,96,87,77,80,11163,2147755337,2147427721,2148013430,2147876982,2147641572,2147052516,2148262445,2147196077,92,4,13,29207
1371873816,5806,967.6900024414062000,54.6515808105468750,676.0515747070312000,4.0980801582336430,53.1213302612304700,53,97,85,78,79,11862,2147756361,2147425362,2148014573,2147877906,2147643803,2147051108,2148259099,2147197622,204,4,13,24029
1371877416,5810,971.0499877929688000,54.6568183898925800,676.7670288085938000,4.0743961334228520,53.1255912780761700,53,96,81,81,79,12625,2147758930,2147425088,2148011739,2147876918,2147642578,2147058121,2148258249,2147194276,378,4,13,39140
1371881016,5808,977.1099853515625000,54.3628005981445300,675.7935180664062000,4.1066250801086430,53.1521186828613300,53,96,86,78,80,12644,2147760000,2147426139,2148012973,2147874185,2147643501,2147052653,2148261458,2147197028,85,4,13,3379
1371884616,5810,968.6099853515625000,54.1346817016601560,676.8422851562500000,4.0719032287597660,53.1961708068847660,52,98,84,77,79,12637,2147757558,2147427099,2148011209,2147875245,2147644946,2147058276,2148262592,2147194971,459,4,13,19000
1371888216,5807,979.2500000000000000,54.7854881286621100,675.8795166015625000,4.1037812232971190,53.0999794006347660,52,98,82,79,80,12641,2147754825,2147426413,2148011072,2147875501,2147642203,2147058678,2148260379,2147194816,340,4,13,7446
1371891816,5812,978.9000244140625000,54.7387809753418000,675.6834716796875000,4.1102681159973145,53.1047401428222660,52,96,85,80,80,12634,2147756205,2147424036,2148011410,2147876653,2147640960,2147058322,2148258880,2147195501,43,4,13,64512
1371895416,5810,980.2299804687500000,54.1260414123535160,675.4694213867188000,4.1173520088195800,53.1797714233398440,53,97,84,78,79,12635,2147759524,2147424155,2148013942,2147875867,2147639012,2147054473,2148263021,2147196342,499,4,13,9069
1371899016,5810,976.7700195312500000,53.9920501708984400,675.2869873046875000,4.1233901977539060,53.1932106018066400,52,97,85,79,80,12631,2147755419,2147424182,2148011520,2147876580,2147642432,2147056347,2148258953,2147196416,434,4,13,30595
1371902616,5807,978.1300048828125000,54.7001800537109400,675.3952026367188000,4.1198081970214840,53.1059608459472660,52,95,86,79,79,12630,2147755611,2147425426,2148014336,2147873106,2147641490,2147054921,2148259218,2147197330,3298,4,13,16287
1371906216,5806,979.6099853515625000,54.1652793884277340,675.7307128906250000,4.1087059974670410,53.1778106689453100,52,97,82,78,79,12635,2147756160,2147429211,2148011172,2147873444,2147641856,2147060672,2148257024,2147198528,457,4,13,31939
1371909816,5809,979.9400024414062000,54.0926589965820300,675.5996704101562000,4.1130390167236330,53.1844596862793000,52,97,83,77,78,12629,2147757440,2147428580,2148010176,2147875501,2147642962,2147053897,2148262610,2147198701,3477,4,13,4833
1371913416,5809,981.4799804687500000,54.1955795288085940,674.8593750000000000,4.1375389099121090,53.1624183654785160,52,97,85,78,79,12611,2147759085,2147425929,2148011474,2147875574,2147644132,2147058733,2148266642,2147195190,3520,4,13,24266
1371917016,5809,976.7700195312500000,54.2545814514160160,674.6024169921875000,4.1460418701171875,53.1531105041503900,52,96,86,79,80,12604,2147755392,2147428114,2148011721,2147872676,2147638445,2147052452,2148262747,2147198628,556,4,13,7761
1371920616,5805,972.7999877929688000,54.0142517089843750,676.1032714843750000,4.0963711738586430,53.2026214599609400,52,97,85,78,79,12600,2147757513,2147423469,2148012105,2147875017,2147640896,2147049444,2148264073,2147198912,534,4,13,2155
1371924216,5802,978.5700073242188000,54.9337806701660160,676.2512207031250000,4.0914731025695800,53.0856781005859400,52,95,88,78,79,12579,2147758966,2147425325,2148012032,2147876214,2147642742,2147056155,2148258084,2147195913,3016,4,13,9301
1371927816,5807,977.1400146484375000,55.0658683776855500,676.7575073242188000,4.0747132301330570,53.0747795104980500,52,97,86,77,79,12583,2147755584,2147423908,2148012534,2147875803,2147641627,2147060809,2148264576,2147193974,3036,4,13,34914
1371931416,5808,980.1199951171875000,54.9358596801757800,676.0112304687500000,4.0994191169738770,53.0822486877441400,53,98,86,78,79,12585,2147757714,2147423862,2148011401,2147876672,2147642304,2147055040,2148264274,2147193472,3391,4,13,46226
1371931855,5808,975.9199829101562000,54.8207397460937500,675.8643188476562000,4.1042799949646000,53.0920791625976560,52,96,84,79,79,15235,2147752713,2147424365,2148012937,2147873481,2147641243,2147055424,2148265645,2147197732,162,4,13,40278
